TAM3197 SBTE-SBSP

Flight info

Callsign TAM3197
Flight time 2h 59m
Altitude 38000
Route GUEST UZ5 KIDUT DCT GEMIX DCT EPGEM DCT EGDUP DCT DEVIR/N0438F390 UZ2 ENTIT
Aircraft A320/M-SDE3FGHIRWY/LB1

Departure

Time 2026-04-26 20:22
Airport Senador Petrônio Portela Airport (SBTE)

Arrival

Time 2026-04-26 23:21
Airport Congonhas–Deputado Freitas Nobre Airport (SBSP)
Time Latitude Longitude Altitude Speed Heading
2026-04-26 19:51 -5.06416 -42.82163 215 ft 0 kts 120°
2026-04-26 20:14 -5.06414 -42.82167 214 ft 2 kts 120°
2026-04-26 20:14 -5.06404 -42.82184 220 ft 3 kts 120°
2026-04-26 20:15 -5.06394 -42.82200 216 ft 3 kts 140°
2026-04-26 20:15 -5.06377 -42.82210 215 ft 3 kts 170°
2026-04-26 20:15 -5.06358 -42.82212 217 ft 2 kts 175°
2026-04-26 20:15 -5.06354 -42.82212 216 ft 0 kts 175°
2026-04-26 20:18 -5.06367 -42.82211 214 ft 6 kts 173°
2026-04-26 20:18 -5.06423 -42.82205 215 ft 9 kts 174°
2026-04-26 20:19 -5.06488 -42.82198 214 ft 9 kts 173°
2026-04-26 20:19 -5.06557 -42.82213 218 ft 12 kts 214°
2026-04-26 20:19 -5.06630 -42.82268 221 ft 15 kts 217°
2026-04-26 20:19 -5.06734 -42.82296 214 ft 18 kts 173°
2026-04-26 20:20 -5.06855 -42.82285 222 ft 11 kts 173°
2026-04-26 20:20 -5.06924 -42.82293 216 ft 12 kts 208°
2026-04-26 20:20 -5.06972 -42.82300 214 ft 6 kts 151°
2026-04-26 20:20 -5.06978 -42.82275 216 ft 1 kts 67°
2026-04-26 20:21 -5.06958 -42.82271 214 ft 5 kts 348°
2026-04-26 20:21 -5.06769 -42.82293 221 ft 66 kts 354°
2026-04-26 20:21 -5.06021 -42.82374 214 ft 147 kts 353°
2026-04-26 20:21 -5.04888 -42.82500 743 ft 166 kts 353°
2026-04-26 20:22 -5.03721 -42.82633 1627 ft 171 kts 353°
2026-04-26 20:22 -5.02509 -42.82759 2394 ft 179 kts 356°
2026-04-26 20:22 -5.01215 -42.82878 2700 ft 198 kts 356°
2026-04-26 20:22 -4.99771 -42.83042 2964 ft 220 kts 347°
2026-04-26 20:23 -4.98461 -42.83909 3318 ft 241 kts 305°
2026-04-26 20:23 -4.97956 -42.85513 3796 ft 253 kts 266°
2026-04-26 20:23 -4.98540 -42.87186 4396 ft 261 kts 229°
2026-04-26 20:23 -4.99904 -42.88402 5156 ft 265 kts 218°
2026-04-26 20:24 -5.01115 -42.89807 5959 ft 271 kts 240°
2026-04-26 20:24 -5.01668 -42.91622 6724 ft 277 kts 264°
2026-04-26 20:24 -5.01764 -42.93556 7516 ft 280 kts 267°
2026-04-26 20:24 -5.01842 -42.95522 8320 ft 282 kts 267°
2026-04-26 20:25 -5.01917 -42.97502 9117 ft 286 kts 267°
2026-04-26 20:25 -5.01968 -42.98831 9629 ft 288 kts 267°
2026-04-26 20:25 -5.02075 -43.01531 10575 ft 292 kts 267°
2026-04-26 20:25 -5.02391 -43.03552 11233 ft 295 kts 248°
2026-04-26 20:26 -5.03481 -43.05278 11881 ft 296 kts 223°
2026-04-26 20:26 -5.05227 -43.06439 12194 ft 313 kts 198°
2026-04-26 20:26 -5.07440 -43.06803 12344 ft 334 kts 183°
2026-04-26 20:26 -5.09796 -43.06945 12708 ft 347 kts 183°
2026-04-26 20:27 -5.12198 -43.07085 13286 ft 352 kts 183°
2026-04-26 20:27 -5.14563 -43.07229 13871 ft 356 kts 183°
2026-04-26 20:27 -5.17052 -43.07386 14430 ft 360 kts 183°
2026-04-26 20:27 -5.19555 -43.07550 14989 ft 363 kts 184°
2026-04-26 20:28 -5.22089 -43.07721 15544 ft 367 kts 184°
2026-04-26 20:28 -5.24652 -43.07897 16095 ft 370 kts 184°
2026-04-26 20:28 -5.27227 -43.08073 16639 ft 373 kts 184°
2026-04-26 20:28 -5.29839 -43.08251 17184 ft 377 kts 184°
2026-04-26 20:29 -5.32464 -43.08428 17722 ft 380 kts 184°
2026-04-26 20:29 -5.35113 -43.08606 18244 ft 384 kts 184°
2026-04-26 20:29 -5.37793 -43.08787 18700 ft 387 kts 184°
2026-04-26 20:29 -5.40485 -43.08970 19166 ft 390 kts 183°
2026-04-26 20:30 -5.43203 -43.09154 19638 ft 392 kts 183°
2026-04-26 20:30 -5.45937 -43.09338 20103 ft 395 kts 183°
2026-04-26 20:30 -5.48686 -43.09523 20563 ft 398 kts 183°
2026-04-26 20:30 -5.51467 -43.09709 21038 ft 401 kts 183°
2026-04-26 20:31 -5.54252 -43.09896 21502 ft 403 kts 183°
2026-04-26 20:31 -5.57059 -43.10086 21956 ft 406 kts 183°
2026-04-26 20:31 -5.59890 -43.10277 22420 ft 409 kts 182°
2026-04-26 20:31 -5.62741 -43.10470 22884 ft 412 kts 182°
2026-04-26 20:32 -5.65606 -43.10724 23324 ft 415 kts 188°
2026-04-26 20:32 -5.68421 -43.11431 23708 ft 420 kts 199°
2026-04-26 20:32 -5.71099 -43.12628 24060 ft 423 kts 205°
2026-04-26 20:32 -5.73746 -43.13945 24414 ft 426 kts 205°
2026-04-26 20:33 -5.76414 -43.15271 24768 ft 429 kts 205°
2026-04-26 20:33 -5.79099 -43.16600 25107 ft 431 kts 205°
2026-04-26 20:33 -5.81794 -43.17928 25444 ft 433 kts 205°
2026-04-26 20:33 -5.84514 -43.19266 25783 ft 436 kts 205°
2026-04-26 20:34 -5.87237 -43.20603 26111 ft 438 kts 204°
2026-04-26 20:34 -5.89993 -43.21953 26432 ft 441 kts 204°
2026-04-26 20:34 -5.92758 -43.23310 26758 ft 443 kts 204°
2026-04-26 20:34 -5.95530 -43.24675 27063 ft 446 kts 204°
2026-04-26 20:35 -5.98326 -43.26054 27371 ft 448 kts 205°
2026-04-26 20:35 -6.01127 -43.27438 27664 ft 451 kts 204°
2026-04-26 20:35 -6.03950 -43.28834 27962 ft 453 kts 204°
2026-04-26 20:35 -6.06788 -43.30235 28261 ft 455 kts 204°
2026-04-26 20:36 -6.09640 -43.31642 28545 ft 458 kts 204°
2026-04-26 20:36 -6.12503 -43.33053 28827 ft 460 kts 204°
2026-04-26 20:36 -6.15388 -43.34475 29099 ft 463 kts 204°
2026-04-26 20:36 -6.18281 -43.35902 29373 ft 465 kts 204°
2026-04-26 20:37 -6.21195 -43.37342 29644 ft 467 kts 204°
2026-04-26 20:37 -6.24121 -43.38790 29914 ft 470 kts 204°
2026-04-26 20:37 -6.27058 -43.40235 30138 ft 472 kts 204°
2026-04-26 20:37 -6.30015 -43.41675 30364 ft 474 kts 204°
2026-04-26 20:38 -6.32990 -43.43114 30592 ft 475 kts 204°
2026-04-26 20:38 -6.35971 -43.44554 30827 ft 476 kts 204°
2026-04-26 20:38 -6.38970 -43.46003 31047 ft 478 kts 204°
2026-04-26 20:38 -6.41970 -43.47455 31254 ft 480 kts 204°
2026-04-26 20:39 -6.44975 -43.48914 31536 ft 479 kts 204°
2026-04-26 20:39 -6.46959 -43.49880 31745 ft 478 kts 204°
2026-04-26 20:39 -6.50961 -43.51833 32175 ft 477 kts 204°
2026-04-26 20:39 -6.53938 -43.53286 32488 ft 476 kts 204°
2026-04-26 20:40 -6.56913 -43.54735 32809 ft 475 kts 203°
2026-04-26 20:40 -6.59887 -43.56183 33118 ft 474 kts 203°
2026-04-26 20:40 -6.62852 -43.57623 33429 ft 473 kts 203°
2026-04-26 20:40 -6.65817 -43.59062 33753 ft 472 kts 203°
2026-04-26 20:41 -6.68774 -43.60498 34051 ft 471 kts 203°
2026-04-26 20:41 -6.71683 -43.61913 34329 ft 470 kts 203°
2026-04-26 20:41 -6.74667 -43.63368 34595 ft 470 kts 203°
2026-04-26 20:41 -6.77564 -43.64781 34861 ft 469 kts 203°
2026-04-26 20:42 -6.80492 -43.66208 35151 ft 467 kts 203°
2026-04-26 20:42 -6.83416 -43.67631 35434 ft 466 kts 203°
2026-04-26 20:42 -6.86331 -43.69048 35723 ft 465 kts 203°
2026-04-26 20:42 -6.89238 -43.70461 35994 ft 464 kts 203°
2026-04-26 20:43 -6.92146 -43.71875 36259 ft 463 kts 203°
2026-04-26 20:43 -6.95045 -43.73285 36518 ft 462 kts 203°
2026-04-26 20:43 -6.97940 -43.74695 36772 ft 462 kts 203°
2026-04-26 20:43 -7.00827 -43.76104 37020 ft 461 kts 203°
2026-04-26 20:44 -7.03707 -43.77509 37263 ft 460 kts 203°
2026-04-26 20:44 -7.06585 -43.78909 37497 ft 459 kts 203°
2026-04-26 20:44 -7.09467 -43.80315 37720 ft 459 kts 203°
2026-04-26 20:44 -7.12332 -43.81716 37901 ft 459 kts 203°
2026-04-26 20:45 -7.15207 -43.83120 37910 ft 458 kts 203°
2026-04-26 20:45 -7.20937 -43.85916 37913 ft 458 kts 203°
2026-04-26 20:46 -7.26665 -43.88709 37905 ft 458 kts 203°
2026-04-26 20:46 -7.32636 -43.90687 37921 ft 450 kts 184°
2026-04-26 20:47 -7.38856 -43.91160 37919 ft 449 kts 181°
2026-04-26 20:47 -7.45082 -43.91624 37918 ft 449 kts 181°
2026-04-26 20:48 -7.51308 -43.92117 37933 ft 449 kts 182°
2026-04-26 20:48 -7.57531 -43.92608 37927 ft 449 kts 182°
2026-04-26 20:49 -7.63759 -43.93087 37933 ft 449 kts 182°
2026-04-26 20:49 -7.69985 -43.93555 37941 ft 449 kts 182°
2026-04-26 20:50 -7.76210 -43.94027 37940 ft 448 kts 182°
2026-04-26 20:50 -7.82432 -43.94505 37938 ft 448 kts 182°
2026-04-26 20:51 -7.88649 -43.94986 37936 ft 448 kts 182°
2026-04-26 20:51 -7.94857 -43.95460 37940 ft 448 kts 182°
2026-04-26 20:52 -8.01063 -43.95930 37940 ft 447 kts 182°
2026-04-26 20:52 -8.07271 -43.96406 37941 ft 447 kts 182°
2026-04-26 20:53 -8.13482 -43.96883 37946 ft 447 kts 182°
2026-04-26 20:53 -8.18640 -43.97281 37939 ft 447 kts 182°
2026-04-26 20:54 -8.25886 -43.97842 37937 ft 447 kts 182°
2026-04-26 20:54 -8.31049 -43.98235 37938 ft 447 kts 182°
2026-04-26 20:55 -8.37247 -43.98703 37939 ft 447 kts 182°
2026-04-26 20:55 -8.43454 -43.99177 37935 ft 447 kts 182°
2026-04-26 20:56 -8.49673 -43.99657 37937 ft 447 kts 183°
2026-04-26 20:56 -8.55876 -44.00135 37939 ft 447 kts 182°
2026-04-26 20:57 -8.62078 -44.00611 37938 ft 447 kts 182°
2026-04-26 20:57 -8.68284 -44.01085 37935 ft 447 kts 182°
2026-04-26 20:58 -8.74449 -44.01559 37938 ft 447 kts 183°
2026-04-26 20:58 -8.80655 -44.02039 37938 ft 447 kts 182°
2026-04-26 20:59 -8.86861 -44.02517 37949 ft 448 kts 183°
2026-04-26 20:59 -8.93070 -44.02993 37947 ft 448 kts 182°
2026-04-26 21:00 -8.99326 -44.03476 37939 ft 448 kts 183°
2026-04-26 21:00 -9.05541 -44.03954 37938 ft 448 kts 182°
2026-04-26 21:01 -9.11758 -44.04433 37941 ft 448 kts 182°
2026-04-26 21:01 -9.17974 -44.04905 37949 ft 448 kts 183°
2026-04-26 21:02 -9.24187 -44.05386 37945 ft 448 kts 183°
2026-04-26 21:02 -9.30401 -44.05873 37948 ft 448 kts 183°
2026-04-26 21:03 -9.36618 -44.06349 37952 ft 448 kts 182°
2026-04-26 21:03 -9.42834 -44.06829 37950 ft 448 kts 183°
2026-04-26 21:04 -9.49059 -44.07310 37951 ft 449 kts 183°
2026-04-26 21:04 -9.55287 -44.07789 37950 ft 449 kts 183°
2026-04-26 21:05 -9.61512 -44.08275 37948 ft 449 kts 182°
2026-04-26 21:05 -9.67754 -44.08755 37950 ft 450 kts 182°
2026-04-26 21:06 -9.73991 -44.09239 37946 ft 450 kts 183°
2026-04-26 21:06 -9.80239 -44.09726 37940 ft 450 kts 183°
2026-04-26 21:07 -9.86487 -44.10206 37938 ft 451 kts 182°
2026-04-26 21:07 -9.92744 -44.10681 37936 ft 451 kts 182°
2026-04-26 21:08 -9.99003 -44.11161 37935 ft 451 kts 183°
2026-04-26 21:08 -10.05268 -44.11654 37934 ft 451 kts 183°
2026-04-26 21:09 -10.11530 -44.12153 37931 ft 451 kts 183°
2026-04-26 21:09 -10.17800 -44.12627 37931 ft 452 kts 183°
2026-04-26 21:10 -10.24063 -44.13109 37942 ft 452 kts 183°
2026-04-26 21:10 -10.30340 -44.13597 37942 ft 452 kts 183°
2026-04-26 21:11 -10.36621 -44.14083 37948 ft 452 kts 183°
2026-04-26 21:11 -10.42894 -44.14574 37961 ft 452 kts 183°
2026-04-26 21:12 -10.49168 -44.15061 37955 ft 453 kts 183°
2026-04-26 21:12 -10.55444 -44.15643 37956 ft 453 kts 186°
2026-04-26 21:13 -10.61670 -44.16634 37954 ft 453 kts 189°
2026-04-26 21:13 -10.67879 -44.17775 37958 ft 453 kts 189°
2026-04-26 21:14 -10.74055 -44.18842 37958 ft 453 kts 188°
2026-04-26 21:14 -10.80287 -44.19840 37954 ft 453 kts 188°
2026-04-26 21:15 -10.86518 -44.20831 37950 ft 454 kts 188°
2026-04-26 21:15 -10.92755 -44.21837 37949 ft 454 kts 188°
2026-04-26 21:16 -10.98998 -44.22858 37948 ft 454 kts 188°
2026-04-26 21:16 -11.05238 -44.23882 37941 ft 454 kts 188°
2026-04-26 21:17 -11.11483 -44.24903 37936 ft 455 kts 188°
2026-04-26 21:17 -11.17734 -44.25924 37938 ft 455 kts 188°
2026-04-26 21:18 -11.23981 -44.26942 37935 ft 455 kts 188°
2026-04-26 21:18 -11.30238 -44.27956 37936 ft 455 kts 188°
2026-04-26 21:19 -11.36495 -44.28972 37934 ft 455 kts 188°
2026-04-26 21:19 -11.42751 -44.29991 37935 ft 455 kts 188°
2026-04-26 21:20 -11.49012 -44.31010 37941 ft 455 kts 188°
2026-04-26 21:20 -11.55262 -44.32034 37946 ft 455 kts 188°
2026-04-26 21:21 -11.61513 -44.33063 37948 ft 455 kts 188°
2026-04-26 21:21 -11.67754 -44.34092 37946 ft 454 kts 188°
2026-04-26 21:22 -11.73999 -44.35118 37946 ft 454 kts 188°
2026-04-26 21:22 -11.80233 -44.36132 37949 ft 454 kts 188°
2026-04-26 21:23 -11.89629 -44.37662 37957 ft 453 kts 189°
2026-04-26 21:23 -11.95854 -44.38683 37962 ft 453 kts 189°
2026-04-26 21:24 -12.02068 -44.39705 37964 ft 452 kts 189°
2026-04-26 21:24 -12.08274 -44.40719 37962 ft 452 kts 189°
2026-04-26 21:25 -12.14480 -44.41738 37966 ft 451 kts 188°
2026-04-26 21:25 -12.20685 -44.42760 37972 ft 451 kts 189°
2026-04-26 21:26 -12.26884 -44.43782 37976 ft 451 kts 188°
2026-04-26 21:26 -12.33077 -44.44799 37976 ft 451 kts 189°
2026-04-26 21:27 -12.39276 -44.45815 37982 ft 451 kts 189°
2026-04-26 21:27 -12.45424 -44.46826 37981 ft 450 kts 189°
2026-04-26 21:28 -12.51606 -44.47846 37977 ft 450 kts 189°
2026-04-26 21:28 -12.57865 -44.48875 37974 ft 457 kts 189°
2026-04-26 21:29 -12.64200 -44.49918 37975 ft 465 kts 189°
2026-04-26 21:29 -12.70619 -44.50979 37978 ft 469 kts 189°
2026-04-26 21:30 -12.77066 -44.52047 37972 ft 469 kts 189°
2026-04-26 21:30 -12.82420 -44.52928 37978 ft 469 kts 189°
2026-04-26 21:31 -12.89959 -44.54167 37971 ft 469 kts 189°
2026-04-26 21:31 -12.96406 -44.55237 37970 ft 469 kts 189°
2026-04-26 21:32 -13.02856 -44.56307 37969 ft 470 kts 189°
2026-04-26 21:32 -13.09316 -44.57376 37976 ft 470 kts 189°
2026-04-26 21:33 -13.15814 -44.58445 37966 ft 470 kts 189°
2026-04-26 21:33 -13.21181 -44.59328 37971 ft 470 kts 189°
2026-04-26 21:34 -13.27640 -44.60398 37976 ft 470 kts 189°
2026-04-26 21:34 -13.34102 -44.61473 37967 ft 470 kts 189°
2026-04-26 21:35 -13.40556 -44.62547 37965 ft 470 kts 189°
2026-04-26 21:35 -13.47021 -44.63623 37966 ft 470 kts 189°
2026-04-26 21:36 -13.53478 -44.64700 37978 ft 470 kts 189°
2026-04-26 21:36 -13.59937 -44.65769 37968 ft 470 kts 189°
2026-04-26 21:37 -13.66391 -44.66835 37969 ft 470 kts 189°
2026-04-26 21:37 -13.72849 -44.67910 37976 ft 470 kts 189°
2026-04-26 21:38 -13.79302 -44.68978 37983 ft 470 kts 189°
2026-04-26 21:38 -13.85753 -44.70045 37970 ft 470 kts 189°
2026-04-26 21:39 -13.92212 -44.71129 37970 ft 470 kts 189°
2026-04-26 21:39 -13.98660 -44.72213 37972 ft 470 kts 189°
2026-04-26 21:40 -14.05117 -44.73287 37975 ft 470 kts 189°
2026-04-26 21:40 -14.11550 -44.74362 37975 ft 470 kts 189°
2026-04-26 21:41 -14.18022 -44.75442 37975 ft 470 kts 189°
2026-04-26 21:41 -14.24472 -44.76522 37984 ft 470 kts 189°
2026-04-26 21:42 -14.30927 -44.77592 37973 ft 470 kts 189°
2026-04-26 21:42 -14.37380 -44.78669 37974 ft 470 kts 189°
2026-04-26 21:43 -14.43834 -44.79755 37990 ft 470 kts 189°
2026-04-26 21:43 -14.50107 -44.81573 37980 ft 469 kts 201°
2026-04-26 21:44 -14.56190 -44.84029 37981 ft 470 kts 201°
2026-04-26 21:44 -14.62286 -44.86477 37978 ft 470 kts 201°
2026-04-26 21:45 -14.68376 -44.88918 37995 ft 470 kts 201°
2026-04-26 21:45 -14.74522 -44.91388 37989 ft 470 kts 201°
2026-04-26 21:46 -14.80616 -44.93841 37985 ft 470 kts 201°
2026-04-26 21:46 -14.86716 -44.96295 37992 ft 470 kts 201°
2026-04-26 21:47 -14.92812 -44.98757 38003 ft 470 kts 201°
2026-04-26 21:47 -14.98908 -45.01220 37989 ft 470 kts 201°
2026-04-26 21:48 -15.05006 -45.03682 37990 ft 471 kts 201°
2026-04-26 21:48 -15.11108 -45.06141 37994 ft 470 kts 201°
2026-04-26 21:49 -15.17207 -45.08600 38003 ft 470 kts 201°
2026-04-26 21:49 -15.23302 -45.11067 38005 ft 470 kts 201°
2026-04-26 21:50 -15.28368 -45.13120 37992 ft 471 kts 201°
2026-04-26 21:50 -15.35504 -45.16011 37993 ft 471 kts 201°
2026-04-26 21:51 -15.41602 -45.18480 37993 ft 471 kts 201°
2026-04-26 21:51 -15.47705 -45.20956 37999 ft 471 kts 201°
2026-04-26 21:52 -15.53801 -45.23425 37994 ft 471 kts 201°
2026-04-26 21:52 -15.59905 -45.25906 37993 ft 471 kts 201°
2026-04-26 21:53 -15.66013 -45.28390 37992 ft 471 kts 201°
2026-04-26 21:53 -15.72114 -45.30867 37994 ft 471 kts 201°
2026-04-26 21:54 -15.78219 -45.33349 37991 ft 471 kts 201°
2026-04-26 21:54 -15.84325 -45.35834 37990 ft 471 kts 201°
2026-04-26 21:55 -15.90428 -45.38315 37987 ft 471 kts 201°
2026-04-26 21:55 -15.96570 -45.40816 37988 ft 471 kts 201°
2026-04-26 21:56 -16.02672 -45.43309 37993 ft 471 kts 201°
2026-04-26 21:56 -16.08776 -45.45805 37990 ft 471 kts 201°
2026-04-26 21:57 -16.14881 -45.48300 37989 ft 471 kts 201°
2026-04-26 21:57 -16.20979 -45.50789 37992 ft 471 kts 201°
2026-04-26 21:58 -16.27083 -45.53282 37985 ft 471 kts 201°
2026-04-26 21:58 -16.33189 -45.55774 37990 ft 471 kts 201°
2026-04-26 21:59 -16.39292 -45.58276 37997 ft 471 kts 201°
2026-04-26 21:59 -16.45396 -45.60774 37999 ft 471 kts 201°
2026-04-26 22:00 -16.51502 -45.63269 37990 ft 471 kts 201°
2026-04-26 22:00 -16.57608 -45.65777 37994 ft 472 kts 202°
2026-04-26 22:01 -16.63712 -45.68294 38000 ft 472 kts 202°
2026-04-26 22:01 -16.69816 -45.70805 38001 ft 472 kts 202°
2026-04-26 22:02 -16.74901 -45.72887 38005 ft 472 kts 201°
2026-04-26 22:02 -16.82039 -45.75817 37995 ft 472 kts 202°
2026-04-26 22:03 -16.88150 -45.78337 38005 ft 472 kts 202°
2026-04-26 22:03 -16.94265 -45.80857 38001 ft 472 kts 202°
2026-04-26 22:04 -17.00376 -45.83379 38001 ft 473 kts 202°
2026-04-26 22:04 -17.06492 -45.85904 38000 ft 472 kts 202°
2026-04-26 22:05 -17.12608 -45.88423 38002 ft 472 kts 202°
2026-04-26 22:05 -17.18725 -45.90944 38004 ft 473 kts 202°
2026-04-26 22:06 -17.24840 -45.93480 38004 ft 473 kts 202°
2026-04-26 22:06 -17.30957 -45.96021 38004 ft 473 kts 202°
2026-04-26 22:07 -17.37080 -45.98551 37999 ft 473 kts 202°
2026-04-26 22:07 -17.42211 -46.00676 38001 ft 473 kts 202°
2026-04-26 22:08 -17.49355 -46.03636 38001 ft 472 kts 202°
2026-04-26 22:08 -17.55467 -46.06166 38001 ft 472 kts 202°
2026-04-26 22:09 -17.60544 -46.08276 38005 ft 472 kts 202°
2026-04-26 22:09 -17.66646 -46.10819 38002 ft 472 kts 202°
2026-04-26 22:10 -17.72745 -46.13347 38001 ft 472 kts 202°
2026-04-26 22:10 -17.78849 -46.15887 38007 ft 472 kts 202°
2026-04-26 22:11 -17.84947 -46.18424 38016 ft 472 kts 202°
2026-04-26 22:11 -17.91044 -46.20966 38019 ft 472 kts 202°
2026-04-26 22:12 -17.97141 -46.23514 38015 ft 471 kts 202°
2026-04-26 22:12 -18.03236 -46.26054 38015 ft 471 kts 202°
2026-04-26 22:13 -18.09338 -46.28596 38023 ft 471 kts 202°
2026-04-26 22:13 -18.15433 -46.31145 38023 ft 471 kts 202°
2026-04-26 22:14 -18.21523 -46.33697 38028 ft 471 kts 202°
2026-04-26 22:14 -18.27615 -46.36246 38032 ft 471 kts 202°
2026-04-26 22:15 -18.33705 -46.38789 38031 ft 471 kts 202°
2026-04-26 22:15 -18.39842 -46.41357 38039 ft 471 kts 203°
2026-04-26 22:16 -18.45937 -46.43917 38039 ft 471 kts 203°
2026-04-26 22:16 -18.52027 -46.46482 38040 ft 471 kts 203°
2026-04-26 22:17 -18.58115 -46.49041 38047 ft 471 kts 203°
2026-04-26 22:17 -18.64195 -46.51594 38044 ft 471 kts 203°
2026-04-26 22:18 -18.70285 -46.54157 38045 ft 470 kts 203°
2026-04-26 22:18 -18.76361 -46.56712 38044 ft 470 kts 203°
2026-04-26 22:19 -18.82442 -46.59274 38048 ft 470 kts 203°
2026-04-26 22:19 -18.88515 -46.61841 38047 ft 470 kts 203°
2026-04-26 22:20 -18.94679 -46.64122 38048 ft 472 kts 193°
2026-04-26 22:20 -19.01185 -46.65131 38045 ft 472 kts 189°
2026-04-26 22:21 -19.07695 -46.66086 38046 ft 472 kts 189°
2026-04-26 22:21 -19.14199 -46.67052 38046 ft 472 kts 189°
2026-04-26 22:22 -19.20713 -46.68010 38045 ft 472 kts 189°
2026-04-26 22:22 -19.27227 -46.68967 38044 ft 472 kts 189°
2026-04-26 22:23 -19.33726 -46.69931 38058 ft 472 kts 190°
2026-04-26 22:23 -19.40233 -46.70902 38064 ft 472 kts 190°
2026-04-26 22:24 -19.46737 -46.71866 38085 ft 472 kts 190°
2026-04-26 22:24 -19.53236 -46.72846 38094 ft 472 kts 190°
2026-04-26 22:25 -19.59738 -46.73802 38099 ft 471 kts 190°
2026-04-26 22:25 -19.66235 -46.74754 38094 ft 471 kts 190°
2026-04-26 22:26 -19.72726 -46.75725 38086 ft 471 kts 190°
2026-04-26 22:26 -19.79213 -46.76703 38076 ft 471 kts 190°
2026-04-26 22:27 -19.85700 -46.77662 38059 ft 471 kts 190°
2026-04-26 22:27 -19.92188 -46.78621 38062 ft 470 kts 191°
2026-04-26 22:28 -19.98667 -46.79587 38061 ft 470 kts 191°
2026-04-26 22:28 -20.05143 -46.80558 38063 ft 470 kts 191°
2026-04-26 22:29 -20.11615 -46.81529 38061 ft 469 kts 191°
2026-04-26 22:29 -20.18077 -46.82495 38049 ft 469 kts 191°
2026-04-26 22:30 -20.24532 -46.83461 38048 ft 468 kts 191°
2026-04-26 22:30 -20.30989 -46.84425 38044 ft 468 kts 191°
2026-04-26 22:31 -20.37435 -46.85396 38040 ft 468 kts 191°
2026-04-26 22:31 -20.43878 -46.86367 38037 ft 467 kts 191°
2026-04-26 22:32 -20.50315 -46.87328 38041 ft 467 kts 191°
2026-04-26 22:32 -20.56746 -46.88293 38036 ft 467 kts 191°
2026-04-26 22:33 -20.66393 -46.89741 38038 ft 466 kts 191°
2026-04-26 22:34 -20.72773 -46.90705 38045 ft 466 kts 192°
2026-04-26 22:34 -20.79281 -46.91314 38049 ft 471 kts 180°
2026-04-26 22:35 -20.85805 -46.90402 38047 ft 473 kts 175°
2026-04-26 22:35 -20.92315 -46.89377 38040 ft 474 kts 175°
2026-04-26 22:36 -20.98841 -46.88330 38036 ft 473 kts 175°
2026-04-26 22:36 -21.05362 -46.87321 38034 ft 473 kts 175°
2026-04-26 22:37 -21.11880 -46.86320 38038 ft 473 kts 175°
2026-04-26 22:37 -21.18407 -46.85303 38035 ft 474 kts 175°
2026-04-26 22:38 -21.24925 -46.84278 38040 ft 474 kts 175°
2026-04-26 22:38 -21.31451 -46.83251 38040 ft 474 kts 175°
2026-04-26 22:39 -21.37964 -46.82225 38040 ft 474 kts 175°
2026-04-26 22:39 -21.44487 -46.81195 38038 ft 474 kts 175°
2026-04-26 22:40 -21.51054 -46.80157 38036 ft 473 kts 175°
2026-04-26 22:40 -21.55402 -46.79471 38038 ft 473 kts 175°
2026-04-26 22:41 -21.70404 -46.77122 38044 ft 473 kts 176°
2026-04-26 22:42 -21.76931 -46.76085 37403 ft 477 kts 176°
2026-04-26 22:42 -21.80204 -46.75564 36898 ft 474 kts 176°
2026-04-26 22:42 -21.83460 -46.75046 36357 ft 474 kts 176°
2026-04-26 22:42 -21.86723 -46.74528 35810 ft 474 kts 176°
2026-04-26 22:43 -21.89993 -46.74012 35234 ft 476 kts 176°
2026-04-26 22:43 -21.93268 -46.73498 34661 ft 477 kts 176°
2026-04-26 22:43 -21.96566 -46.72981 34066 ft 478 kts 176°
2026-04-26 22:43 -21.99861 -46.72463 33432 ft 480 kts 176°
2026-04-26 22:44 -22.03172 -46.71937 32861 ft 482 kts 176°
2026-04-26 22:44 -22.06451 -46.71414 32281 ft 483 kts 176°
2026-04-26 22:44 -22.09822 -46.70878 31688 ft 484 kts 176°
2026-04-26 22:44 -22.13196 -46.70341 31103 ft 485 kts 176°
2026-04-26 22:45 -22.16497 -46.69817 30538 ft 486 kts 176°
2026-04-26 22:45 -22.19845 -46.69285 29954 ft 487 kts 176°
2026-04-26 22:45 -22.23204 -46.68751 29376 ft 488 kts 176°
2026-04-26 22:45 -22.26556 -46.68217 28835 ft 489 kts 175°
2026-04-26 22:46 -22.29943 -46.67677 28290 ft 491 kts 175°
2026-04-26 22:46 -22.33323 -46.67136 27748 ft 492 kts 175°
2026-04-26 22:46 -22.36711 -46.66648 27180 ft 490 kts 180°
2026-04-26 22:46 -22.40078 -46.66873 26628 ft 482 kts 195°
2026-04-26 22:47 -22.43220 -46.68026 26069 ft 476 kts 210°
2026-04-26 22:47 -22.45948 -46.70006 25476 ft 471 kts 224°
2026-04-26 22:47 -22.48343 -46.72403 24888 ft 474 kts 225°
2026-04-26 22:47 -22.50773 -46.74865 24222 ft 477 kts 225°
2026-04-26 22:48 -22.53196 -46.77324 23596 ft 479 kts 225°
2026-04-26 22:48 -22.55623 -46.79785 22867 ft 475 kts 225°
2026-04-26 22:48 -22.58015 -46.82201 22173 ft 462 kts 225°
2026-04-26 22:48 -22.60313 -46.84517 21917 ft 443 kts 225°
2026-04-26 22:49 -22.62530 -46.86748 21673 ft 427 kts 224°
2026-04-26 22:49 -22.64907 -46.88589 21426 ft 417 kts 210°
2026-04-26 22:49 -22.67595 -46.89676 21185 ft 410 kts 195°
2026-04-26 22:49 -22.70415 -46.89938 20944 ft 406 kts 180°
2026-04-26 22:50 -22.73142 -46.89718 20712 ft 396 kts 179°
2026-04-26 22:50 -22.75852 -46.89483 20482 ft 387 kts 179°
2026-04-26 22:50 -22.78501 -46.89252 20247 ft 378 kts 179°
2026-04-26 22:50 -22.81093 -46.89031 20014 ft 369 kts 179°
2026-04-26 22:51 -22.83626 -46.88821 19794 ft 361 kts 180°
2026-04-26 22:51 -22.86106 -46.88620 19571 ft 354 kts 180°
2026-04-26 22:51 -22.87752 -46.88488 19401 ft 349 kts 180°
2026-04-26 22:51 -22.90936 -46.88234 19118 ft 345 kts 180°
2026-04-26 22:52 -22.93326 -46.88042 18894 ft 344 kts 180°
2026-04-26 22:52 -22.94904 -46.87914 18742 ft 343 kts 180°
2026-04-26 22:52 -22.97276 -46.87719 18529 ft 341 kts 180°
2026-04-26 22:52 -22.99673 -46.87521 18311 ft 354 kts 180°
2026-04-26 22:53 -23.02167 -46.87317 18058 ft 367 kts 180°
2026-04-26 22:53 -23.04748 -46.87106 17800 ft 374 kts 179°
2026-04-26 22:53 -23.07337 -46.86890 17545 ft 374 kts 179°
2026-04-26 22:53 -23.09926 -46.86673 17291 ft 372 kts 179°
2026-04-26 22:54 -23.12503 -46.86458 16887 ft 370 kts 179°
2026-04-26 22:54 -23.15063 -46.86245 16456 ft 367 kts 179°
2026-04-26 22:54 -23.17602 -46.86035 16012 ft 364 kts 179°
2026-04-26 22:54 -23.20122 -46.85825 15581 ft 362 kts 178°
2026-04-26 22:55 -23.22620 -46.85617 15157 ft 359 kts 178°
2026-04-26 22:55 -23.24117 -46.85488 14910 ft 358 kts 178°
2026-04-26 22:55 -23.26673 -46.85263 14474 ft 355 kts 178°
2026-04-26 22:55 -23.29131 -46.85057 14057 ft 353 kts 178°
2026-04-26 22:56 -23.31500 -46.84863 13634 ft 351 kts 178°
2026-04-26 22:56 -23.33986 -46.84662 13190 ft 347 kts 178°
2026-04-26 22:56 -23.36379 -46.84468 12772 ft 343 kts 178°
2026-04-26 22:56 -23.38749 -46.84274 12349 ft 339 kts 178°
2026-04-26 22:57 -23.41093 -46.84080 11939 ft 336 kts 178°
2026-04-26 22:57 -23.43415 -46.83887 11513 ft 334 kts 178°
2026-04-26 22:57 -23.45714 -46.83695 11098 ft 332 kts 177°
2026-04-26 22:57 -23.48019 -46.83503 10707 ft 328 kts 177°
2026-04-26 22:58 -23.50251 -46.83317 10526 ft 315 kts 177°
2026-04-26 22:58 -23.52412 -46.83134 9858 ft 310 kts 177°
2026-04-26 22:58 -23.54507 -46.82956 9426 ft 295 kts 176°
2026-04-26 22:58 -23.56476 -46.82511 9051 ft 282 kts 162°
2026-04-26 22:59 -23.58203 -46.81618 9011 ft 274 kts 150°
2026-04-26 22:59 -23.59807 -46.80514 9013 ft 272 kts 149°
2026-04-26 22:59 -23.61406 -46.79409 9012 ft 272 kts 149°
2026-04-26 22:59 -23.63000 -46.78306 9016 ft 272 kts 149°
2026-04-26 23:00 -23.64599 -46.77201 9012 ft 272 kts 150°
2026-04-26 23:00 -23.66203 -46.76093 8743 ft 272 kts 150°
2026-04-26 23:00 -23.67797 -46.74991 8484 ft 270 kts 150°
2026-04-26 23:00 -23.69378 -46.73895 8274 ft 269 kts 149°
2026-04-26 23:01 -23.70964 -46.72795 8064 ft 269 kts 149°
2026-04-26 23:01 -23.72539 -46.71702 7819 ft 268 kts 149°
2026-04-26 23:01 -23.74110 -46.70613 7570 ft 267 kts 149°
2026-04-26 23:01 -23.75678 -46.69528 7321 ft 267 kts 149°
2026-04-26 23:02 -23.77243 -46.68445 7078 ft 266 kts 149°
2026-04-26 23:02 -23.78807 -46.67360 6830 ft 265 kts 149°
2026-04-26 23:02 -23.80360 -46.66282 6575 ft 265 kts 149°
2026-04-26 23:02 -23.81912 -46.65202 6334 ft 264 kts 148°
2026-04-26 23:03 -23.83237 -46.63790 6157 ft 268 kts 122°
2026-04-26 23:03 -23.83810 -46.61922 6041 ft 256 kts 94°
2026-04-26 23:03 -23.83576 -46.60056 5906 ft 244 kts 66°
2026-04-26 23:03 -23.82703 -46.58537 5789 ft 231 kts 49°
2026-04-26 23:04 -23.81722 -46.57200 5690 ft 220 kts 50°
2026-04-26 23:04 -23.80809 -46.55943 5586 ft 208 kts 48°
2026-04-26 23:04 -23.79683 -46.55032 5379 ft 194 kts 15°
2026-04-26 23:04 -23.78428 -46.54937 5267 ft 170 kts 344°
2026-04-26 23:05 -23.77435 -46.55434 5254 ft 150 kts 324°
2026-04-26 23:05 -23.76565 -46.56026 5248 ft 146 kts 324°
2026-04-26 23:05 -23.75714 -46.56610 5219 ft 144 kts 324°
2026-04-26 23:05 -23.74880 -46.57186 5111 ft 143 kts 324°
2026-04-26 23:06 -23.74041 -46.57767 5007 ft 143 kts 324°
2026-04-26 23:06 -23.73206 -46.58345 4840 ft 142 kts 324°
2026-04-26 23:06 -23.72372 -46.58923 4662 ft 142 kts 325°
2026-04-26 23:06 -23.71535 -46.59503 4481 ft 142 kts 325°
2026-04-26 23:07 -23.70702 -46.60081 4302 ft 142 kts 325°
2026-04-26 23:07 -23.69869 -46.60658 4121 ft 142 kts 325°
2026-04-26 23:07 -23.69037 -46.61235 3941 ft 141 kts 326°
2026-04-26 23:07 -23.68208 -46.61809 3761 ft 141 kts 326°
2026-04-26 23:08 -23.67380 -46.62382 3579 ft 141 kts 326°
2026-04-26 23:08 -23.66558 -46.62951 3403 ft 139 kts 326°
2026-04-26 23:08 -23.65741 -46.63515 3227 ft 139 kts 327°
2026-04-26 23:08 -23.64927 -46.64078 3042 ft 138 kts 327°
2026-04-26 23:09 -23.64109 -46.64648 2826 ft 138 kts 327°
2026-04-26 23:09 -23.63308 -46.65204 2611 ft 136 kts 328°
2026-04-26 23:09 -23.62592 -46.65693 2631 ft 122 kts 329°
2026-04-26 23:09 -23.61784 -46.66224 3202 ft 144 kts 328°
2026-04-26 23:10 -23.60916 -46.66807 4054 ft 149 kts 326°
2026-04-26 23:10 -23.60148 -46.67555 4731 ft 153 kts 300°
2026-04-26 23:10 -23.59985 -46.68763 4892 ft 176 kts 255°
2026-04-26 23:10 -23.60774 -46.69833 5102 ft 203 kts 210°
2026-04-26 23:11 -23.62237 -46.70052 5443 ft 226 kts 175°
2026-04-26 23:11 -23.63799 -46.69679 5901 ft 233 kts 166°
2026-04-26 23:11 -23.65334 -46.69148 5986 ft 232 kts 163°
2026-04-26 23:11 -23.66860 -46.68585 6007 ft 231 kts 164°
2026-04-26 23:12 -23.68389 -46.68036 6016 ft 231 kts 165°
2026-04-26 23:12 -23.69946 -46.67512 6004 ft 231 kts 166°
2026-04-26 23:12 -23.71489 -46.67022 6009 ft 230 kts 166°
2026-04-26 23:12 -23.73028 -46.66542 6009 ft 230 kts 167°
2026-04-26 23:13 -23.74570 -46.66062 6000 ft 230 kts 167°
2026-04-26 23:13 -23.76115 -46.65580 6004 ft 230 kts 167°
2026-04-26 23:13 -23.77662 -46.65098 5998 ft 231 kts 166°
2026-04-26 23:13 -23.79202 -46.64614 5985 ft 231 kts 167°
2026-04-26 23:14 -23.80744 -46.64131 5978 ft 230 kts 166°
2026-04-26 23:14 -23.82180 -46.63368 5937 ft 234 kts 140°
2026-04-26 23:14 -23.83117 -46.61944 5857 ft 229 kts 110°
2026-04-26 23:14 -23.83324 -46.60278 5758 ft 218 kts 81°
2026-04-26 23:15 -23.82865 -46.58785 5705 ft 200 kts 56°
2026-04-26 23:15 -23.82049 -46.57619 5596 ft 188 kts 49°
2026-04-26 23:15 -23.81259 -46.56532 5497 ft 177 kts 49°
2026-04-26 23:15 -23.80431 -46.55635 5408 ft 159 kts 29°
2026-04-26 23:16 -23.79447 -46.55171 5348 ft 151 kts
2026-04-26 23:16 -23.78429 -46.55111 5288 ft 145 kts 348°
2026-04-26 23:16 -23.77515 -46.55488 5295 ft 141 kts 325°
2026-04-26 23:16 -23.76660 -46.56020 5294 ft 141 kts 326°
2026-04-26 23:17 -23.75819 -46.56566 5274 ft 141 kts 325°
2026-04-26 23:17 -23.74980 -46.57130 5175 ft 141 kts 324°
2026-04-26 23:17 -23.74152 -46.57696 5028 ft 140 kts 324°
2026-04-26 23:17 -23.73327 -46.58264 4867 ft 140 kts 324°
2026-04-26 23:18 -23.72505 -46.58833 4696 ft 140 kts 324°
2026-04-26 23:18 -23.71686 -46.59399 4519 ft 139 kts 324°
2026-04-26 23:18 -23.70869 -46.59965 4344 ft 139 kts 324°
2026-04-26 23:18 -23.70051 -46.60532 4158 ft 139 kts 325°
2026-04-26 23:19 -23.69233 -46.61098 3979 ft 139 kts 325°
2026-04-26 23:19 -23.68415 -46.61665 3809 ft 139 kts 326°
2026-04-26 23:19 -23.67595 -46.62233 3626 ft 139 kts 326°
2026-04-26 23:19 -23.66780 -46.62798 3455 ft 139 kts 326°
2026-04-26 23:20 -23.65964 -46.63362 3280 ft 138 kts 326°
2026-04-26 23:20 -23.65154 -46.63920 3089 ft 137 kts 326°
2026-04-26 23:20 -23.64333 -46.64479 2917 ft 147 kts 326°
2026-04-26 23:20 -23.63494 -46.65071 2689 ft 141 kts 327°
2026-04-26 23:21 -23.62717 -46.65618 2608 ft 119 kts 326°
2026-04-26 23:21 -23.62163 -46.65998 2594 ft 53 kts 327°
2026-04-26 23:21 -23.62064 -46.66069 2593 ft 7 kts 320°
2026-04-26 23:21 -23.62061 -46.66127 2591 ft 9 kts 228°
2026-04-26 23:22 -23.62121 -46.66123 2599 ft 10 kts 150°
2026-04-26 23:22 -23.62190 -46.66078 2599 ft 12 kts 149°
2026-04-26 23:22 -23.62264 -46.66031 2600 ft 9 kts 150°
2026-04-26 23:22 -23.62321 -46.65994 2600 ft 11 kts 148°
2026-04-26 23:23 -23.62392 -46.65944 2601 ft 13 kts 147°
2026-04-26 23:23 -23.62469 -46.65891 2601 ft 13 kts 148°
2026-04-26 23:23 -23.62512 -46.65862 2602 ft 6 kts 147°
2026-04-26 23:23 -23.62532 -46.65863 2601 ft 4 kts 207°
2026-04-26 23:24 -23.62556 -46.65902 2601 ft 8 kts 236°
2026-04-26 23:24 -23.62566 -46.65919 2601 ft 1 kts 237°
2026-04-26 23:24 -23.62570 -46.65926 2601 ft 0 kts 237°